Home > Weather > Zerbst/Anhalt > Past weeks

Flag for Germany Past Weather in Zerbst/Anhalt, Saxony-Anhalt, Germany — Yesterday and Last 2 Weeks

Now
54 °F

Light rain. Overcast.


Feels Like: 51 °F
Forecast: 53 / 65 °F
Wind: 9 mph from Northwest

Location: Leipzig-Schkeuditz

Current Time: May 24, 2016 at 11:48:18 PM

Latest Report: May 24, 2016 at 11:20 PM


Visibility: 4 mi

Pressure: 29.95 "Hg

Humidity: 88%

Dew Point: 50 °F

Location of Zerbst/AnhaltLocation

Past Weather in Zerbst/Anhalt — Graph

°F

Zerbst/Anhalt Temperature Yesterday

Maximum temperature yesterday: 72 °F (at 4:20 PM)
Minimum temperature yesterday: 57 °F (at 5:20 AM)
Average temperature yesterday: 64 °F

High & Low Weather Summary for the Past Weeks

 TemperatureHumidityPressure
High82 °F (May 22, 2:50 PM)100% (May 23, 9:20 PM)30.07 "Hg (May 23, 9:20 PM)
Low37 °F (May 15, 2:20 AM)28% (May 22, 3:20 PM)29.50 "Hg (May 12, 4:50 PM)
Average58 °F68%29.85 "Hg
* Reported May 9 10:20 PM — May 24 10:20 PM, Zerbst/Anhalt, Weather by CustomWeather, © 2016

Note: Actual official high and low records may vary slightly from our data, if they occured in-between our weather recording intervals... More about our weather records

Advertising

Zerbst/Anhalt Weather History for the Previous 24 Hours

Scroll right to see more
 ConditionsComfort  
Time TempWeatherWind HumidityBarometerVisibility
10:20 PM
Tue, May 24
54 °FOvercast.8 mph88%29.92 "HgN/A
9:50 PM54 °FOvercast.8 mph88%29.92 "Hg5 mi
9:20 PM54 °FLow clouds.12 mph88%29.92 "Hg5 mi
8:50 PM54 °FLow clouds.13 mph88%29.92 "Hg5 mi
8:20 PM54 °FLow clouds.9 mph88%29.92 "Hg5 mi
7:50 PM54 °FLow clouds.13 mph88%29.89 "Hg5 mi
7:20 PM54 °FPartly sunny.13 mph88%29.92 "Hg5 mi
6:50 PM54 °FPartly sunny.12 mph94%29.89 "HgN/A
6:20 PM54 °FLow clouds.14 mph94%29.89 "HgN/A
5:50 PM54 °FLow clouds.12 mph94%29.89 "HgN/A
5:20 PM54 °FLow clouds.17 mph94%29.89 "HgN/A
4:50 PM54 °FLow clouds.16 mph94%29.89 "HgN/A
4:20 PM55 °FPartly sunny.15 mph88%29.89 "HgN/A
3:50 PM55 °FPartly sunny.15 mph88%29.89 "HgN/A
3:20 PM55 °FPartly sunny.15 mph94%29.86 "HgN/A
2:50 PM57 °FPartly sunny.16 mph88%29.86 "HgN/A
2:20 PM57 °FPartly sunny.16 mph88%29.86 "HgN/A
1:50 PM59 °FPartly sunny.16 mph82%29.86 "HgN/A
1:20 PM57 °FPartly sunny.16 mph88%29.86 "HgN/A
12:50 PM57 °FPartly sunny.15 mph88%29.86 "HgN/A
12:20 PM57 °FPartly sunny.16 mph88%29.86 "HgN/A
11:50 AM57 °FPartly sunny.15 mph88%29.83 "HgN/A
11:20 AM55 °FDrizzle. Low clouds.18 mph100%29.83 "HgN/A
10:50 AM55 °FDrizzle. Low clouds.16 mph100%29.83 "HgN/A
10:20 AM57 °FDrizzle. Low clouds.15 mph94%29.83 "HgN/A
9:50 AM57 °FDrizzle. Low clouds.16 mph94%29.80 "Hg5 mi
9:20 AM57 °FDrizzle. Low clouds.15 mph94%29.80 "Hg5 mi
8:50 AM57 °FDrizzle. Partly sunny.13 mph94%29.80 "Hg5 mi
8:20 AM59 °FDrizzle. Partly sunny.9 mph94%29.80 "HgN/A
7:50 AM59 °FLight rain. Mostly cloudy.7 mph94%29.80 "HgN/A
7:20 AM59 °FMostly cloudy.8 mph94%29.80 "HgN/A
6:50 AM59 °FLight rain. Mostly cloudy.10 mph94%29.77 "HgN/A
6:20 AM59 °FBroken clouds.7 mph94%29.77 "HgN/A
5:50 AM59 °FPartly cloudy.9 mph94%29.77 "HgN/A
5:20 AM59 °FPartly cloudy.9 mph94%29.77 "HgN/A
4:50 AM59 °FPassing clouds.8 mph94%29.77 "HgN/A
4:20 AM59 °FPassing clouds.7 mph94%29.77 "HgN/A
3:50 AM59 °FPassing clouds.9 mph94%29.77 "HgN/A
3:20 AM59 °FPartly cloudy.8 mph94%29.77 "HgN/A
2:50 AM59 °FPartly cloudy.9 mph94%29.77 "HgN/A
2:20 AM59 °FPartly cloudy.9 mph94%29.74 "HgN/A
1:50 AM59 °FPartly cloudy.12 mph94%29.77 "HgN/A
1:20 AM59 °FPassing clouds.9 mph94%29.77 "HgN/A
12:50 AM59 °FPassing clouds.16 mph94%29.74 "HgN/A
12:20 AM59 °FPassing clouds.14 mph94%29.74 "HgN/A
11:50 PM
Mon, May 23
57 °FPassing clouds.16 mph100%29.77 "HgN/A
11:20 PM57 °FThundershowers. Passing clouds.14 mph94%29.77 "HgN/A
Weather by CustomWeather, © 2016

See weather overviewHow to use our weather pages